Time,TemperatureF,DewpointF,PressureIn,WindDirection,WindDirectionDegrees,WindSpeedMPH,WindSpeedGustMPH,Humidity,HourlyPrecipIn,Conditions,Clouds,dailyrainin,SoftwareType,DateUTC
2013-06-19 00:01:00,71.0,-99.9,-100.00,SW,234,1.0,-999.0,-999,0.00,,,0.00,,2013-06-19 05:01:00,
2013-06-19 00:11:00,71.0,-99.9,-100.00,SW,234,1.0,-999.0,-999,0.00,,,0.00,,2013-06-19 05:11:00,
2013-06-19 00:23:00,71.0,-99.9,-100.00,SW,234,1.0,-999.0,-999,0.00,,,0.00,,2013-06-19 05:23:00,
2013-06-19 00:30:00,71.0,-99.9,-100.00,East,91,2.0,-999.0,-999,0.00,,,0.00,,2013-06-19 05:30:00,
2013-06-19 00:33:00,70.0,-99.9,-100.00,SW,226,2.0,-999.0,-999,0.00,,,0.00,,2013-06-19 05:33:00,
2013-06-19 00:43:00,70.0,-99.9,-100.00,SW,226,2.0,-999.0,-999,0.00,,,0.00,,2013-06-19 05:43:00,
2013-06-19 00:52:00,70.0,-99.9,-100.00,SW,226,2.0,-999.0,-999,0.00,,,0.00,,2013-06-19 05:52:00,
2013-06-19 01:02:00,71.0,-99.9,-100.00,East,91,2.0,-999.0,-999,0.00,,,0.00,,2013-06-19 06:02:00,
2013-06-19 01:12:00,71.0,-99.9,-100.00,East,91,2.0,-999.0,-999,0.00,,,0.00,,2013-06-19 06:12:00,
2013-06-19 01:22:00,71.0,-99.9,-100.00,East,91,2.0,-999.0,-999,0.00,,,0.00,,2013-06-19 06:22:00,
2013-06-19 02:02:00,71.0,-99.9,-100.00,ESE,115,3.0,-999.0,-999,0.00,,,0.00,,2013-06-19 07:02:00,
2013-06-19 02:12:00,71.0,-99.9,-100.00,ESE,115,3.0,-999.0,-999,0.00,,,0.00,,2013-06-19 07:12:00,
2013-06-19 02:23:00,71.0,-99.9,-100.00,ESE,115,3.0,-999.0,-999,0.00,,,0.00,,2013-06-19 07:23:00,
2013-06-19 02:33:00,71.0,-99.9,-100.00,ESE,112,3.0,-999.0,-999,0.00,,,0.00,,2013-06-19 07:33:00,
2013-06-19 02:44:00,71.0,-99.9,-100.00,ESE,112,3.0,-999.0,-999,0.00,,,0.00,,2013-06-19 07:44:00,
2013-06-19 02:54:00,71.0,-99.9,-100.00,ESE,112,3.0,-999.0,-999,0.00,,,0.00,,2013-06-19 07:54:00,
2013-06-19 03:02:00,68.0,-99.9,-100.00,SSW,208,1.0,-999.0,-999,0.00,,,0.00,,2013-06-19 08:02:00,
2013-06-19 03:11:00,68.0,-99.9,-100.00,SSW,208,1.0,-999.0,-999,0.00,,,0.00,,2013-06-19 08:11:00,
2013-06-19 03:22:00,68.0,-99.9,-100.00,SSW,208,1.0,-999.0,-999,0.00,,,0.00,,2013-06-19 08:22:00,
2013-06-19 03:34:00,69.0,-99.9,-100.00,SE,133,4.0,-999.0,-999,0.00,,,0.00,,2013-06-19 08:34:00,
2013-06-19 03:43:00,69.0,-99.9,-100.00,SE,133,4.0,-999.0,-999,0.00,,,0.00,,2013-06-19 08:43:00,
2013-06-19 03:54:00,69.0,-99.9,-100.00,SE,133,4.0,-999.0,-999,0.00,,,0.00,,2013-06-19 08:54:00,
2013-06-19 04:02:00,68.0,-99.9,-100.00,ESE,120,4.0,-999.0,-999,0.00,,,0.00,,2013-06-19 09:02:00,
2013-06-19 04:12:00,68.0,-99.9,-100.00,ESE,120,4.0,-999.0,-999,0.00,,,0.00,,2013-06-19 09:12:00,
2013-06-19 04:22:00,68.0,-99.9,-100.00,ESE,120,4.0,-999.0,-999,0.00,,,0.00,,2013-06-19 09:22:00,
2013-06-19 04:30:00,68.0,-99.9,-100.00,ENE,76,4.0,-999.0,-999,0.00,,,0.00,,2013-06-19 09:30:00,
2013-06-19 04:34:00,68.0,-99.9,-100.00,ESE,106,2.0,-999.0,-999,0.00,,,0.00,,2013-06-19 09:34:00,
2013-06-19 04:44:00,68.0,-99.9,-100.00,ESE,106,2.0,-999.0,-999,0.00,,,0.00,,2013-06-19 09:44:00,
2013-06-19 04:53:00,68.0,-99.9,-100.00,ESE,106,2.0,-999.0,-999,0.00,,,0.00,,2013-06-19 09:53:00,
2013-06-19 05:02:00,68.0,-99.9,-100.00,ENE,76,4.0,-999.0,-999,0.00,,,0.00,,2013-06-19 10:02:00,
2013-06-19 05:12:00,68.0,-99.9,-100.00,ENE,76,4.0,-999.0,-999,0.00,,,0.00,,2013-06-19 10:12:00,
2013-06-19 05:22:00,68.0,-99.9,-100.00,ENE,76,4.0,-999.0,-999,0.00,,,0.00,,2013-06-19 10:22:00,
2013-06-19 06:02:00,67.0,-99.9,-100.00,ESE,115,4.0,-999.0,-999,0.00,,,0.00,,2013-06-19 11:02:00,
2013-06-19 06:12:00,67.0,-99.9,-100.00,ESE,115,4.0,-999.0,-999,0.00,,,0.00,,2013-06-19 11:12:00,
2013-06-19 06:22:00,67.0,-99.9,-100.00,ESE,115,4.0,-999.0,-999,0.00,,,0.00,,2013-06-19 11:22:00,
2013-06-19 06:33:00,66.0,-99.9,-100.00,ESE,107,4.0,-999.0,-999,0.00,,,0.00,,2013-06-19 11:33:00,
2013-06-19 06:43:00,66.0,-99.9,-100.00,ESE,107,4.0,-999.0,-999,0.00,,,0.00,,2013-06-19 11:43:00,
2013-06-19 06:54:00,66.0,-99.9,-100.00,ESE,107,4.0,-999.0,-999,0.00,,,0.00,,2013-06-19 11:54:00,
2013-06-19 07:02:00,66.0,-99.9,-100.00,ESE,112,3.0,-999.0,-999,0.00,,,0.00,,2013-06-19 12:02:00,
2013-06-19 07:12:00,66.0,-99.9,-100.00,ESE,112,3.0,-999.0,-999,0.00,,,0.00,,2013-06-19 12:12:00,
2013-06-19 07:22:00,66.0,-99.9,-100.00,ESE,112,3.0,-999.0,-999,0.00,,,0.00,,2013-06-19 12:22:00,
2013-06-19 07:34:00,66.0,-99.9,-100.00,ESE,109,4.0,-999.0,-999,0.00,,,0.00,,2013-06-19 12:34:00,
2013-06-19 07:44:00,66.0,-99.9,-100.00,ESE,109,4.0,-999.0,-999,0.00,,,0.00,,2013-06-19 12:44:00,
2013-06-19 07:53:00,66.0,-99.9,-100.00,ESE,109,4.0,-999.0,-999,0.00,,,0.00,,2013-06-19 12:53:00,
2013-06-19 08:02:00,67.0,-99.9,-100.00,East,82,4.0,-999.0,-999,0.00,,,0.00,,2013-06-19 13:02:00,
2013-06-19 08:12:00,67.0,-99.9,-100.00,East,82,4.0,-999.0,-999,0.00,,,0.00,,2013-06-19 13:12:00,
2013-06-19 08:22:00,67.0,-99.9,-100.00,East,82,4.0,-999.0,-999,0.00,,,0.00,,2013-06-19 13:22:00,
2013-06-19 08:33:00,68.0,-99.9,-100.00,NE,44,4.0,-999.0,-999,0.00,,,0.00,,2013-06-19 13:33:00,
2013-06-19 08:43:00,68.0,-99.9,-100.00,NE,44,4.0,-999.0,-999,0.00,,,0.00,,2013-06-19 13:43:00,
2013-06-19 08:54:00,68.0,-99.9,-100.00,NE,44,4.0,-999.0,-999,0.00,,,0.00,,2013-06-19 13:54:00,
2013-06-19 09:02:00,70.0,-99.9,-100.00,East,93,3.0,-999.0,-999,0.00,,,0.00,,2013-06-19 14:02:00,
2013-06-19 09:12:00,70.0,-99.9,-100.00,East,93,3.0,-999.0,-999,0.00,,,0.00,,2013-06-19 14:12:00,
2013-06-19 09:23:00,70.0,-99.9,-100.00,East,93,3.0,-999.0,-999,0.00,,,0.00,,2013-06-19 14:23:00,
2013-06-19 09:34:00,72.0,-99.9,-100.00,East,83,3.0,-999.0,-999,0.00,,,0.00,,2013-06-19 14:34:00,
2013-06-19 09:44:00,72.0,-99.9,-100.00,East,83,3.0,-999.0,-999,0.00,,,0.00,,2013-06-19 14:44:00,
2013-06-19 09:53:00,72.0,-99.9,-100.00,East,83,3.0,-999.0,-999,0.00,,,0.00,,2013-06-19 14:53:00,
2013-06-19 10:02:00,71.0,-99.9,-100.00,ESE,119,3.0,-999.0,-999,0.00,,,0.00,,2013-06-19 15:02:00,
2013-06-19 10:11:00,71.0,-99.9,-100.00,ESE,119,3.0,-999.0,-999,0.00,,,0.00,,2013-06-19 15:11:00,
2013-06-19 10:22:00,71.0,-99.9,-100.00,ESE,119,3.0,-999.0,-999,0.00,,,0.00,,2013-06-19 15:22:00,
2013-06-19 10:33:00,73.0,-99.9,-100.00,SE,133,2.0,-999.0,-999,0.00,,,0.00,,2013-06-19 15:33:00,
2013-06-19 10:43:00,73.0,-99.9,-100.00,SE,133,2.0,-999.0,-999,0.00,,,0.00,,2013-06-19 15:43:00,
2013-06-19 10:53:00,73.0,-99.9,-100.00,SE,133,2.0,-999.0,-999,0.00,,,0.00,,2013-06-19 15:53:00,
2013-06-19 11:00:00,79.0,-99.9,-100.00,NNE,20,1.0,-999.0,-999,0.00,,,0.00,,2013-06-19 16:00:00,
2013-06-19 11:02:00,75.0,-99.9,-100.00,ESE,118,2.0,-999.0,-999,0.00,,,0.00,,2013-06-19 16:02:00,
2013-06-19 11:11:00,75.0,-99.9,-100.00,ESE,118,2.0,-999.0,-999,0.00,,,0.00,,2013-06-19 16:11:00,
2013-06-19 11:22:00,75.0,-99.9,-100.00,ESE,118,2.0,-999.0,-999,0.00,,,0.00,,2013-06-19 16:22:00,
2013-06-19 11:34:00,79.0,-99.9,-100.00,NNE,20,1.0,-999.0,-999,0.00,,,0.00,,2013-06-19 16:34:00,
2013-06-19 11:44:00,79.0,-99.9,-100.00,NNE,20,1.0,-999.0,-999,0.00,,,0.00,,2013-06-19 16:44:00,
2013-06-19 11:53:00,79.0,-99.9,-100.00,NNE,20,1.0,-999.0,-999,0.00,,,0.00,,2013-06-19 16:53:00,
2013-06-19 12:34:00,78.0,-99.9,-100.00,NNW,340,1.0,-999.0,-999,0.00,,,0.00,,2013-06-19 17:34:00,
2013-06-19 12:43:00,78.0,-99.9,-100.00,NNW,340,1.0,-999.0,-999,0.00,,,0.00,,2013-06-19 17:43:00,
2013-06-19 12:53:00,78.0,-99.9,-100.00,NNW,340,1.0,-999.0,-999,0.00,,,0.00,,2013-06-19 17:53:00,
2013-06-19 13:02:00,80.0,-99.9,-100.00,NNW,337,2.0,-999.0,-999,0.00,,,0.00,,2013-06-19 18:02:00,
2013-06-19 13:12:00,80.0,-99.9,-100.00,NNW,337,2.0,-999.0,-999,0.00,,,0.00,,2013-06-19 18:12:00,
2013-06-19 13:24:00,80.0,-99.9,-100.00,NNW,337,2.0,-999.0,-999,0.00,,,0.00,,2013-06-19 18:24:00,
2013-06-19 13:30:00,81.0,-99.9,-100.00,SE,129,3.0,-999.0,-999,0.00,,,0.00,,2013-06-19 18:30:00,
2013-06-19 13:33:00,82.0,-99.9,-100.00,ESE,114,3.0,-999.0,-999,0.00,,,0.00,,2013-06-19 18:33:00,
2013-06-19 13:44:00,82.0,-99.9,-100.00,ESE,114,3.0,-999.0,-999,0.00,,,0.00,,2013-06-19 18:44:00,
2013-06-19 13:53:00,82.0,-99.9,-100.00,ESE,114,3.0,-999.0,-999,0.00,,,0.00,,2013-06-19 18:53:00,
2013-06-19 14:02:00,81.0,-99.9,-100.00,SE,129,3.0,-999.0,-999,0.00,,,0.00,,2013-06-19 19:02:00,
2013-06-19 14:12:00,81.0,-99.9,-100.00,SE,129,3.0,-999.0,-999,0.00,,,0.00,,2013-06-19 19:12:00,
2013-06-19 14:22:00,81.0,-99.9,-100.00,SE,129,3.0,-999.0,-999,0.00,,,0.00,,2013-06-19 19:22:00,
2013-06-19 14:30:00,82.0,-99.9,-100.00,SE,125,4.0,-999.0,-999,0.00,,,0.00,,2013-06-19 19:30:00,
2013-06-19 15:02:00,82.0,-99.9,-100.00,SE,125,4.0,-999.0,-999,0.00,,,0.00,,2013-06-19 20:02:00,
2013-06-19 15:12:00,82.0,-99.9,-100.00,SE,125,4.0,-999.0,-999,0.00,,,0.00,,2013-06-19 20:12:00,
2013-06-19 15:22:00,82.0,-99.9,-100.00,SE,125,4.0,-999.0,-999,0.00,,,0.00,,2013-06-19 20:22:00,
2013-06-19 16:02:00,82.0,-99.9,-100.00,SE,133,4.0,-999.0,-999,0.00,,,0.00,,2013-06-19 21:02:00,
2013-06-19 16:12:00,82.0,-99.9,-100.00,SE,133,4.0,-999.0,-999,0.00,,,0.00,,2013-06-19 21:12:00,
2013-06-19 16:22:00,82.0,-99.9,-100.00,SE,133,4.0,-999.0,-999,0.00,,,0.00,,2013-06-19 21:22:00,
2013-06-19 16:33:00,83.0,-99.9,-100.00,SE,125,5.0,-999.0,-999,0.00,,,0.00,,2013-06-19 21:33:00,
2013-06-19 16:44:00,83.0,-99.9,-100.00,SE,125,5.0,-999.0,-999,0.00,,,0.00,,2013-06-19 21:44:00,
2013-06-19 16:52:00,83.0,-99.9,-100.00,SE,125,5.0,-999.0,-999,0.00,,,0.00,,2013-06-19 21:52:00,
2013-06-19 17:02:00,83.0,-99.9,-100.00,East,96,2.0,-999.0,-999,0.00,,,0.00,,2013-06-19 22:02:00,
2013-06-19 17:12:00,83.0,-99.9,-100.00,East,96,2.0,-999.0,-999,0.00,,,0.00,,2013-06-19 22:12:00,
2013-06-19 17:22:00,83.0,-99.9,-100.00,East,96,2.0,-999.0,-999,0.00,,,0.00,,2013-06-19 22:22:00,
2013-06-19 17:34:00,88.0,-99.9,-100.00,East,90,2.0,-999.0,-999,0.00,,,0.00,,2013-06-19 22:34:00,
2013-06-19 17:43:00,88.0,-99.9,-100.00,East,90,2.0,-999.0,-999,0.00,,,0.00,,2013-06-19 22:43:00,
2013-06-19 17:53:00,88.0,-99.9,-100.00,East,90,2.0,-999.0,-999,0.00,,,0.00,,2013-06-19 22:53:00,
2013-06-19 18:02:00,84.0,-99.9,-100.00,SE,134,3.0,-999.0,-999,0.00,,,0.00,,2013-06-19 23:02:00,
2013-06-19 18:12:00,84.0,-99.9,-100.00,SE,134,3.0,-999.0,-999,0.00,,,0.00,,2013-06-19 23:12:00,
2013-06-19 18:23:00,84.0,-99.9,-100.00,SE,134,3.0,-999.0,-999,0.00,,,0.00,,2013-06-19 23:23:00,
2013-06-19 18:30:00,81.0,-99.9,-100.00,SW,222,2.0,-999.0,-999,0.00,,,0.00,,2013-06-19 23:30:00,
2013-06-19 18:34:00,83.0,-99.9,-100.00,South,189,2.0,-999.0,-999,0.00,,,0.00,,2013-06-19 23:34:00,
2013-06-19 18:43:00,83.0,-99.9,-100.00,South,189,2.0,-999.0,-999,0.00,,,0.00,,2013-06-19 23:43:00,
2013-06-19 18:52:00,83.0,-99.9,-100.00,South,189,2.0,-999.0,-999,0.00,,,0.00,,2013-06-19 23:52:00,
2013-06-19 19:02:00,81.0,-99.9,-100.00,SW,222,2.0,-999.0,-999,0.00,,,0.00,,2013-06-20 00:02:00,
2013-06-19 19:12:00,81.0,-99.9,-100.00,SW,222,2.0,-999.0,-999,0.00,,,0.00,,2013-06-20 00:12:00,
2013-06-19 19:22:00,81.0,-99.9,-100.00,SW,222,2.0,-999.0,-999,0.00,,,0.00,,2013-06-20 00:22:00,
2013-06-19 20:02:00,77.0,-99.9,-100.00,SW,228,3.0,-999.0,-999,0.00,,,0.00,,2013-06-20 01:02:00,
2013-06-19 20:12:00,77.0,-99.9,-100.00,SW,228,3.0,-999.0,-999,0.00,,,0.00,,2013-06-20 01:12:00,
2013-06-19 20:22:00,77.0,-99.9,-100.00,SW,228,3.0,-999.0,-999,0.00,,,0.00,,2013-06-20 01:22:00,
2013-06-19 20:34:00,76.0,-99.9,-100.00,SW,231,3.0,-999.0,-999,0.00,,,0.00,,2013-06-20 01:34:00,
2013-06-19 20:44:00,76.0,-99.9,-100.00,SW,231,3.0,-999.0,-999,0.00,,,0.00,,2013-06-20 01:44:00,
2013-06-19 20:53:00,76.0,-99.9,-100.00,SW,231,3.0,-999.0,-999,0.00,,,0.00,,2013-06-20 01:53:00,
2013-06-19 21:02:00,74.0,-99.9,-100.00,WSW,242,2.0,-999.0,-999,0.00,,,0.00,,2013-06-20 02:02:00,
2013-06-19 21:12:00,74.0,-99.9,-100.00,WSW,242,2.0,-999.0,-999,0.00,,,0.00,,2013-06-20 02:12:00,
2013-06-19 21:24:00,74.0,-99.9,-100.00,WSW,242,2.0,-999.0,-999,0.00,,,0.00,,2013-06-20 02:24:00,
2013-06-19 21:34:00,74.0,-99.9,-100.00,SW,233,2.0,-999.0,-999,0.00,,,0.00,,2013-06-20 02:34:00,
2013-06-19 21:43:00,74.0,-99.9,-100.00,SW,233,2.0,-999.0,-999,0.00,,,0.00,,2013-06-20 02:43:00,
2013-06-19 21:53:00,74.0,-99.9,-100.00,SW,233,2.0,-999.0,-999,0.00,,,0.00,,2013-06-20 02:53:00,
2013-06-19 22:02:00,73.0,-99.9,-100.00,SW,216,1.0,-999.0,-999,0.00,,,0.00,,2013-06-20 03:02:00,
2013-06-19 22:12:00,73.0,-99.9,-100.00,SW,216,1.0,-999.0,-999,0.00,,,0.00,,2013-06-20 03:12:00,
2013-06-19 22:22:00,73.0,-99.9,-100.00,SW,216,1.0,-999.0,-999,0.00,,,0.00,,2013-06-20 03:22:00,
2013-06-19 22:33:00,73.0,-99.9,-100.00,SW,224,1.0,-999.0,-999,0.00,,,0.00,,2013-06-20 03:33:00,
2013-06-19 22:43:00,73.0,-99.9,-100.00,SW,224,1.0,-999.0,-999,0.00,,,0.00,,2013-06-20 03:43:00,
2013-06-19 22:54:00,73.0,-99.9,-100.00,SW,224,1.0,-999.0,-999,0.00,,,0.00,,2013-06-20 03:54:00,
2013-06-19 23:02:00,72.0,-99.9,-100.00,SW,234,2.0,-999.0,-999,0.00,,,0.00,,2013-06-20 04:02:00,
2013-06-19 23:12:00,72.0,-99.9,-100.00,SW,234,2.0,-999.0,-999,0.00,,,0.00,,2013-06-20 04:12:00,
2013-06-19 23:23:00,72.0,-99.9,-100.00,SW,234,2.0,-999.0,-999,0.00,,,0.00,,2013-06-20 04:23:00,
2013-06-19 23:34:00,71.0,-99.9,-100.00,SW,224,1.0,-999.0,-999,0.00,,,0.00,,2013-06-20 04:34:00,
2013-06-19 23:44:00,71.0,-99.9,-100.00,SW,224,1.0,-999.0,-999,0.00,,,0.00,,2013-06-20 04:44:00,
2013-06-19 23:54:00,71.0,-99.9,-100.00,SW,224,1.0,-999.0,-999,0.00,,,0.00,,2013-06-20 04:54:00,